Tracking 23440 objects as of 13-Jun-2021
HD Live streaming from Space Station
objects crossing your sky now

COSMOS 1030 DEB

Track COSMOS 1030 DEB now!


NORAD ID: 39447
Int'l Code: 1978-083T
Perigee: 3,652.9 km
Apogee: 36,763.8 km
Inclination: 67.2 °
Period: 718.7 minutes
Semi major axis: 26579 km
RCS: Unknown
Launch date: September 6, 1978
Source: Commonwealth of Independent States (former USSR) (CIS)
Launch site: PLESETSK MISSILE AND SPACE COMPLEX (PKMTR)

Note: This is SATELLITE DEBRIS
aabbcc
Your satellite tracking list
Your tracking list is empty




NASA's NSSDC Master Catalog

Two Line Element Set (TLE):
1 39447U 78083T   21162.92635765 -.00000712  00000-0  00000-0 0  9999
2 39447  67.2303 357.2751 6228703  19.6364 356.4999  2.00349015 46051
Source of the keplerian elements: AFSPC